STARLINK-31547, 59364

Orbit data source: Space-Track

STARLINK-31547, 59364 is a payload satellite owned by SpaceX/Seattle (US) in LEO that was launched on Sun, 31 Mar 2024 UTC via an FALCON 9 launch vehicle from the Air Force Eastern Test Range (AFETR). Payload-class satellites include a variety of spacecraft equipped with specific instruments for various scientific and technological missions. These include communications satellites like Starlink; space stations such as the ISS; scientific satellites like the Hubble; Earth observation satellites from companies like Planet Labs, Umbra, and HawkEye 360; GPS; miniature CubeSats for education and research; and military/defense satellites.

Loading next visibility...
Identifier
59364, 2024-060S
Orbit
LEO
Country
Flag of USUS
Related business
Manufacturer
SpaceX/Seattle
Mission
Operational Commercial Communications
Bus & Motor
STARLINK V2M, Unknown motor
Mass
730 kg wet, ~700 kg dry
Launch date (UTC)
2024-03-31 (2 years ago)
Launch vehicle
FALCON 9
Launch site
Air Force Eastern Test Range (AFETR)
Object type
Payload
Rocket body
Debris
Shape & HBR
Box + 2 Pan, 17.7 m
Radar Cross Section
33.884 m², Large (>1 m²)

Expand to show TLE details & history
Last TLE update: 9 hours ago

TLE from 9 hours ago
0 STARLINK-31547
1 59364U 24060S   25289.44370649 -.00004926  00000-0 -16947-3 0  9995
2 59364  42.9972 343.1141 0003864 261.5195  98.5218 15.27589880 88135
Epoch: 2025-10-16T10:38Z
TLE epoch observation values (Epoch: 2025-10-16T10:38:56.240Z)
Latitude
-0.00008°
Longitude
158.17633°
Altitude
483.188 km
Speed
7.625 km/s
True Right ascension
22h 52m 27s
True Declination
0° 00' 00"
Sunlit
Object was in full shadow at epoch
Visualization orbit readout
Latitude
Unknown
Longitude
Unknown
Altitude
Unknown
Speed
Unknown
Apparent Right ascension
Unknown
Apparent Declination
Unknown
Sunlit
N/A
Visualization observer readout
Local Sidereal Time
14:29:35
Azimuth
Unknown
Elevation
Unknown
Doppler factor
Unknown
Orbital elements
Apogee altitude
487.617 km
Perigee altitude
482.313 km
Semi-major axis
6,863.102 km
Eccentricity
0.00039
Inclination
42.9972°
RAAN
343.1141°
Arg. of periapsis
261.5195°
True anomaly
98.56559°
Mean anomaly
98.5218°
Eccentric anomaly
98.54369°
Mean motion
3.81735 °/min
Orbital period
94.31 mins
BSTAR
-0.00016947
Loading maneuver chart data...
Computing Atmospheric mass density...
Loading historical data...
Loading historical data...
Loading historical data...
Loading historical data...
Loading historical data...
Loading historical data...
Loading historical data...

Documentation

Showing up to 5 results
|